Temperature
23 20 20 21 21 23 23 23 22 23 24 24 23 23 23 23 23 22 22 22 22 22 22 22 21 21 20 20 20 20 20 19 19 19 18 18 18 18 18 18 18 17 17 17
20 20 21 22 22 23 23 23 22 23 24 24 23 23 22 22 22 23 22 22 22 22 22 22 21 21 20 20 20 20 19 19 19 19 19 19 18 18 18 18 17 17 17 17
21 22 22 22 23 23 23 22 23 23 23 23 24 23 22 22 22 22 23 23 22 22 22 22 21 21 21 20 20 20 19 19 19 19 18 18 18 18 17 17 17 17 17 17
21 21 23 23 23 23 22 22 23 23 22 21 23 22 22 21 20 21 21 22 22 22 22 22 21 21 21 21 20 20 20 19 19 19 18 18 18 18 18 18 18 17 17 17
21 22 23 23 23 22 23 23 23 23 22 21 21 21 20 20 21 21 21 21 22 22 22 22 22 22 21 21 20 20 19 19 19 18 18 18 18 18 18 18 17 17 17 17
22 23 23 23 24 24 24 22 21 18 19 21 22 21 21 19 21 21 20 21 21 22 22 22 22 21 21 20 20 20 19 19 19 18 18 18 18 18 18 18 17 17 17 17
22 23 23 24 24 24 23 20 19 20 19 20 20 20 20 20 20 20 20 21 21 21 22 22 21 21 20 20 20 20 19 19 19 18 18 18 18 18 18 18 17 17 17 17
21 21 22 23 23 22 21 20 20 21 20 19 20 20 20 21 21 21 21 21 21 21 21 22 21 21 20 20 20 19 19 19 19 18 18 18 18 18 18 17 17 17 17 17
19 20 22 23 23 22 21 20 19 18 19 20 20 20 20 21 20 20 20 20 20 21 21 21 21 20 20 20 19 19 19 19 18 18 18 18 18 17 17 17 17 17 17 17
19 21 22 23 23 22 21 18 17 18 19 20 21 20 20 21 20 20 19 20 20 20 21 21 21 20 20 20 19 19 19 18 18 18 18 18 17 17 17 17 17 17 17 17
20 21 22 22 23 22 20 19 17 16 17 18 20 20 20 20 20 19 19 20 20 20 21 20 21 20 20 19 19 19 18 18 18 18 18 17 17 17 17 17 17 17 17 17
19 18 19 20 22 22 22 19 18 19 19 17 18 19 21 19 19 19 19 20 20 20 21 20 20 20 20 19 19 19 18 18 18 17 17 17 17 17 17 17 17 17 17 17
18 18 19 20 21 21 22 20 18 17 16 15 18 21 20 19 19 20 20 19 20 20 20 20 20 20 19 19 19 19 18 18 18 17 17 17 17 17 17 17 17 17 17 16
18 17 19 20 20 21 22 21 18 18 17 17 18 20 20 19 19 19 19 20 20 20 20 20 20 19 19 19 19 18 18 18 18 17 17 17 17 17 17 17 17 16 16 16
18 18 19 19 21 21 23 22 20 20 19 19 19 19 20 19 19 19 19 19 19 19 19 20 20 19 19 19 18 18 18 18 17 17 17 17 17 17 17 16 16 16 16 16
15 18 19 21 21 22 23 22 21 21 20 20 21 20 19 19 20 19 19 19 19 19 20 20 20 19 19 19 18 18 18 18 17 17 17 17 17 16 16 16 16 16 16 16
15 17 18 19 20 22 21 22 21 21 21 20 21 21 19 18 18 19 19 19 20 20 20 20 20 20 19 19 19 18 18 18 17 17 17 17 16 16 16 16 16 16 16 15
15 15 14 16 20 21 20 20 21 21 20 19 20 19 18 18 19 20 20 20 20 20 20 20 20 19 19 19 18 18 18 17 17 17 17 16 16 16 16 16 16 15 15 15
13 15 14 15 18 19 20 20 20 21 21 19 19 18 18 18 18 18 20 21 21 21 21 21 20 19 19 18 18 18 17 17 17 16 16 16 16 16 16 15 15 15 15 15
13 13 14 15 18 19 20 20 20 20 20 19 18 17 17 18 18 18 20 20 20 20 20 20 19 19 18 18 18 17 17 17 16 16 16 16 15 15 15 15 15 15 14 14
14 14 15 15 17 17 17 17 19 20 20 19 18 18 18 18 19 20 20 20 20 20 20 19 19 19 18 18 17 17 17 16 16 16 15 15 15 15 15 14 14 14 14 14
13 14 14 14 16 17 17 17 18 18 18 18 18 19 19 19 19 20 20 20 19 19 19 19 18 18 18 17 17 17 16 16 15 15 15 15 15 14 14 14 14 13 13 13
12 12 12 13 14 15 15 15 17 17 17 18 19 19 19 18 18 19 19 19 19 18 18 18 18 17 17 16 16 16 16 15 15 15 15 14 14 14 14 13 13 13 12 12
12 12 12 13 14 14 15 16 17 17 18 19 19 19 19 18 18 18 18 17 17 17 17 17 17 16 16 16 16 16 15 15 15 14 14 14 14 13 13 13 12 12 12 12
12 12 12 13 13 14 16 16 16 17 18 18 18 18 18 18 18 18 17 17 17 17 17 16 16 16 16 15 15 15 15 14 14 14 13 13 13 13 12 12 12 12 12 12
10 11 12 12 13 13 14 15 16 17 17 17 17 17 17 18 18 17 17 17 16 16 16 16 15 15 15 15 15 14 14 14 14 14 13 13 12 12 12 12 11 11 11 11
Wind_Speed
4 4 4 7 7 5 3 1 6 8 6 3 4 5 4 1 4 5 6 8 9 10 7 6 8 9 10 10 10 11 10 10 9 7 7 6 5 5 5 6 10 11 11 11
4 4 8 6 5 3 2 4 6 7 4 2 3 4 3 1 5 7 8 9 10 8 6 7 8 9 10 11 11 10 10 10 10 8 6 4 4 4 4 4 7 11 11 11
8 5 4 6 4 4 4 5 6 6 6 5 3 6 4 2 1 2 4 5 6 9 10 9 9 10 10 11 12 12 11 10 10 8 5 4 3 3 3 4 5 7 11 12
6 6 4 4 5 6 5 7 7 4 1 4 3 3 7 4 4 4 5 5 6 7 7 7 8 9 10 11 11 10 10 10 9 9 9 9 7 6 6 5 5 6 9 10
7 5 6 7 7 9 8 2 3 1 3 1 3 1 8 3 4 7 6 5 5 6 8 8 9 9 9 9 10 9 9 9 9 9 10 9 6 5 4 4 6 6 5 8
6 4 6 7 5 7 5 5 6 6 5 1 2 2 7 4 6 5 4 4 4 6 7 7 6 7 6 7 8 8 9 8 9 9 9 9 8 7 6 6 6 6 4 4
3 4 5 5 2 1 5 6 5 5 4 5 4 2 9 7 6 6 5 4 4 5 6 7 7 7 7 8 8 8 8 8 8 9 8 9 8 8 8 7 7 6 5 5
5 6 6 7 9 7 6 9 8 5 5 5 3 5 7 5 4 2 3 4 5 5 5 6 7 7 7 7 7 8 9 8 8 8 8 7 8 6 6 7 6 7 6 6
8 7 5 5 6 11 8 5 8 7 3 1 6 7 8 2 2 2 4 5 6 5 5 6 6 7 7 8 7 8 8 7 7 8 7 7 7 7 7 6 5 5 5 5
10 4 5 3 4 3 7 10 7 7 6 3 5 5 5 6 5 3 4 6 5 5 6 6 6 6 6 6 6 6 6 6 6 6 6 6 6 6 6 6 6 6 6 5
8 6 4 3 5 8 6 6 6 6 6 7 4 7 7 9 8 8 7 7 7 7 7 7 6 6 5 5 5 5 5 4 4 5 4 4 4 5 5 5 5 5 5 5
7 6 5 8 5 5 6 9 9 6 5 5 5 8 6 6 6 7 7 7 6 7 7 7 7 6 5 5 5 5 5 5 4 4 4 4 3 4 4 4 4 4 5 5
8 7 2 6 5 1 4 6 6 7 7 6 6 7 4 0 2 5 7 7 7 8 7 6 6 6 6 5 5 5 4 4 4 4 4 3 3 3 3 3 3 4 4 4
7 6 8 10 8 6 5 6 7 7 6 7 8 8 6 5 6 6 7 8 8 7 7 7 6 5 6 6 5 5 4 4 4 4 4 3 3 3 2 2 2 3 3 3
5 5 6 7 5 5 5 7 9 8 10 10 10 9 11 11 11 9 9 9 9 8 8 7 7 6 6 6 5 5 4 4 4 5 4 3 2 3 3 2 2 2 3 3
3 3 3 2 3 5 4 5 8 7 6 7 5 8 8 4 5 7 9 11 10 9 9 8 7 7 7 6 6 5 4 4 5 5 4 3 3 4 3 3 3 3 3 3
1 4 4 3 1 3 5 7 7 6 5 8 9 10 4 5 9 11 12 12 12 11 10 9 9 8 7 7 6 6 5 5 6 5 4 4 4 4 3 4 4 4 3 4
4 4 4 2 3 6 9 4 5 5 5 7 7 5 7 8 6 5 7 11 11 11 11 10 8 8 6 6 6 6 6 6 6 5 4 4 4 4 4 4 4 3 3 4
5 7 5 4 4 4 5 1 3 4 4 4 6 4 5 6 5 1 3 7 10 10 9 9 8 7 7 7 7 7 7 6 5 5 4 4 4 5 4 4 4 3 4 4
4 4 6 5 4 7 7 3 2 3 4 3 5 7 8 9 5 5 4 7 7 7 7 8 8 8 8 7 7 7 6 6 5 4 4 4 4 5 4 4 4 4 4 5
3 4 4 5 4 6 5 6 1 5 7 3 5 7 9 7 5 5 8 7 8 8 8 8 9 8 7 7 8 8 6 5 4 5 5 5 5 5 5 4 4 5 5 6
3 3 3 5 4 7 4 3 3 5 3 2 4 6 7 6 7 8 9 9 10 9 8 8 8 6 5 6 8 7 6 4 5 6 6 5 5 4 4 5 5 5 6 6
3 4 4 6 6 4 3 4 6 3 3 2 3 5 9 9 8 9 8 9 9 9 9 8 8 7 5 4 6 7 5 5 6 6 6 5 5 5 4 5 5 5 5 5
2 1 2 2 4 4 5 4 3 1 1 2 4 7 9 10 10 10 9 8 8 7 8 8 8 7 5 4 4 5 5 6 6 6 6 5 5 5 5 4 4 4 4 5
3 1 1 2 4 4 4 4 4 4 4 6 7 6 8 12 11 10 10 9 7 7 6 7 8 7 5 5 5 5 5 6 7 6 6 5 5 5 5 5 4 4 3 3
3 4 4 5 5 3 4 5 3 3 4 6 7 8 7 9 11 10 9 8 8 7 7 7 7 6 6 6 5 4 4 5 7 6 5 4 4 5 5 6 7 11 9 10
Wind_Direction
97 95 197 206 187 177 160 257 288 276 288 299 288 291 289 203 167 183 191 194 196 206 199 172 169 170 170 171 177 181 184 178 172 172 175 179 189 186 185 193 190 187 189 190
61 249 225 180 165 170 195 282 288 296 335 352 311 318 320 211 203 200 201 203 198 189 175 172 168 173 179 179 183 187 190 182 181 185 180 175 166 175 179 184 187 189 191 192
181 227 171 157 175 192 227 216 244 270 333 8 13 339 329 317 273 235 222 206 194 187 186 181 176 177 178 183 188 194 193 187 185 174 154 134 116 109 151 183 191 194 196 196
215 240 197 194 209 178 254 229 218 248 345 314 26 298 292 295 293 260 246 215 194 186 180 178 172 178 183 188 188 187 183 184 183 171 173 173 180 183 190 189 190 189 196 196
221 206 188 211 216 177 217 208 187 238 169 346 1 167 285 313 271 256 250 232 191 177 172 176 180 183 182 180 180 179 175 180 181 179 184 185 189 187 173 170 178 189 198 200
224 219 198 207 203 184 175 74 55 47 75 21 280 188 277 256 243 261 248 234 189 165 161 163 162 159 159 162 166 168 171 180 180 181 183 187 187 180 174 181 188 194 195 200
268 261 229 186 168 76 116 94 30 3 14 255 285 222 253 261 255 248 240 219 169 153 149 148 150 156 156 158 163 166 174 183 182 183 186 189 190 187 191 191 195 193 192 202
194 270 234 194 183 178 168 142 156 190 219 275 317 243 260 276 290 256 188 160 138 132 141 149 154 154 155 159 165 170 180 187 183 185 192 191 189 192 199 199 196 198 202 205
180 243 277 231 191 149 140 169 156 131 154 277 290 291 303 292 358 87 126 137 138 136 141 139 142 149 156 160 171 181 182 183 184 188 188 189 190 193 199 200 196 201 204 204
157 217 283 293 110 67 143 141 110 128 149 222 287 285 256 263 246 203 174 162 148 139 137 135 140 149 152 152 157 163 164 173 176 177 183 188 189 196 196 190 194 200 203 197
145 172 285 359 174 171 115 112 111 118 146 156 226 268 230 224 218 201 197 177 160 155 150 145 145 146 139 131 138 143 146 148 154 167 174 177 185 186 185 193 199 199 197 192
157 144 227 259 257 184 161 163 147 151 193 173 174 260 270 231 221 192 183 174 161 152 148 146 142 134 133 136 140 140 143 148 157 157 158 169 170 166 178 194 198 191 194 194
144 133 136 330 333 148 170 165 153 125 121 151 170 257 298 253 183 182 174 168 159 149 145 144 140 139 142 140 136 135 140 147 144 141 145 148 152 160 176 191 193 189 190 189
132 130 168 196 211 193 178 167 149 130 148 187 212 238 273 237 208 195 177 165 155 151 151 147 146 145 142 136 134 131 128 134 136 136 139 143 149 155 167 165 168 175 168 168
118 166 200 217 209 181 187 178 169 175 180 183 219 220 237 223 206 192 173 158 154 156 156 155 155 152 143 135 133 131 125 120 121 117 116 123 118 113 118 127 134 135 142 151
72 153 167 231 208 201 208 200 184 194 183 200 213 242 245 212 163 170 169 165 168 170 167 164 156 151 146 143 142 136 123 115 112 112 108 101 102 98 96 98 102 109 115 116
72 115 121 226 268 126 230 212 186 191 192 178 205 229 188 172 186 187 181 177 178 176 171 170 165 160 155 152 149 143 132 120 116 114 109 102 105 103 95 95 94 98 100 103
148 116 125 137 116 198 240 249 188 182 210 207 215 216 191 195 181 166 167 175 174 173 171 169 164 157 152 144 136 132 125 123 121 115 112 107 105 103 99 97 94 91 94 96
168 141 123 126 168 251 294 273 155 172 246 218 199 185 152 126 94 79 182 170 172 173 168 163 158 148 144 142 138 131 128 126 122 122 120 119 118 111 104 100 95 93 97 92
72 105 120 129 152 213 238 292 305 132 264 242 180 173 156 137 152 219 179 149 143 142 144 144 137 130 138 142 135 132 136 135 139 140 131 122 121 120 114 106 97 94 101 100
55 66 127 153 191 249 267 302 4 162 236 231 181 176 167 173 184 155 133 130 128 126 128 131 131 136 143 142 138 139 139 145 147 134 122 116 117 120 118 111 104 104 108 104
159 143 164 147 176 242 314 359 177 229 269 201 171 165 152 133 112 115 123 125 124 121 121 124 123 119 120 136 142 141 144 142 134 129 123 118 116 118 118 117 112 110 115 112
189 186 186 192 212 255 286 259 274 258 233 215 159 150 139 128 120 117 119 120 120 123 124 120 123 119 110 118 137 141 139 130 130 128 125 119 111 106 109 118 119 113 113 117
282 156 163 267 282 301 309 312 328 338 180 130 131 138 135 129 126 121 122 120 120 120 122 122 123 124 120 112 114 125 128 128 128 127 124 119 114 107 100 102 110 118 125 129
250 201 155 281 294 329 338 347 354 26 66 92 100 110 127 126 126 126 126 123 120 115 116 123 127 127 124 116 107 107 120 128 127 124 121 117 114 114 103 90 78 98 95 134
225 192 184 228 240 221 271 304 347 66 88 102 103 98 102 119 123 121 121 121 121 120 118 117 117 120 118 115 108 105 114 127 129 128 126 122 117 115 117 113 88 64 74 81
Height
1500 1507 1512 1511 1510 1511 1513 1516 1519 1511 1501 1501 1501 1500 1495 1494 1495 1496 1497 1499 1500 1502 1505 1509 1512 1515 1519 1523 1526 1529 1533 1536 1539 1542 1544 1547 1549 1552 1555 1558 1561 1563 1566 1568
1506 1509 1504 1504 1506 1509 1512 1517 1517 1508 1500 1501 1502 1501 1496 1494 1494 1494 1495 1496 1498 1501 1504 1506 1510 1513 1517 1520 1523 1526 1530 1533 1537 1540 1543 1545 1548 1550 1553 1556 1559 1561 1564 1566
1506 1503 1499 1503 1506 1510 1512 1515 1513 1511 1505 1502 1504 1507 1501 1496 1494 1494 1494 1495 1496 1498 1501 1503 1506 1509 1513 1516 1520 1523 1527 1531 1535 1538 1541 1544 1547 1549 1551 1554 1556 1559 1561 1564
1502 1498 1498 1502 1505 1507 1514 1505 1506 1507 1514 1520 1512 1526 1508 1500 1497 1494 1493 1493 1494 1497 1499 1501 1503 1506 1509 1512 1516 1521 1525 1528 1532 1536 1539 1541 1543 1545 1548 1551 1554 1556 1559 1561
1499 1495 1497 1500 1499 1501 1504 1499 1503 1506 1512 1521 1518 1524 1516 1503 1500 1494 1491 1491 1493 1495 1497 1499 1502 1504 1507 1511 1514 1518 1522 1526 1530 1533 1536 1539 1541 1544 1547 1549 1551 1554 1557 1559
1493 1490 1491 1492 1491 1493 1496 1502 1509 1517 1523 1533 1521 1525 1521 1507 1498 1492 1490 1491 1492 1494 1496 1499 1501 1504 1506 1510 1513 1517 1520 1524 1527 1530 1533 1536 1539 1541 1544 1546 1548 1551 1554 1556
1495 1490 1487 1487 1492 1493 1498 1516 1535 1535 1543 1539 1523 1523 1518 1496 1491 1490 1489 1490 1492 1494 1496 1497 1500 1503 1506 1509 1512 1515 1519 1522 1525 1528 1530 1533 1536 1539 1541 1543 1545 1548 1550 1552
1504 1504 1487 1484 1488 1496 1500 1510 1533 1542 1545 1538 1523 1523 1507 1491 1488 1487 1487 1489 1492 1494 1496 1498 1499 1503 1506 1508 1511 1514 1517 1520 1523 1525 1528 1530 1533 1535 1538 1540 1542 1545 1547 1549
1503 1501 1483 1479 1480 1487 1501 1507 1509 1529 1534 1537 1530 1517 1500 1489 1488 1487 1487 1489 1491 1494 1496 1498 1500 1503 1505 1508 1510 1513 1517 1519 1521 1523 1526 1528 1530 1533 1535 1537 1539 1541 1543 1546
1488 1496 1484 1479 1480 1484 1489 1500 1516 1528 1542 1543 1530 1522 1513 1495 1490 1488 1488 1489 1491 1494 1496 1498 1501 1503 1506 1509 1511 1513 1516 1518 1520 1522 1524 1526 1528 1530 1531 1533 1535 1537 1539 1541
1481 1492 1490 1484 1485 1490 1495 1501 1511 1524 1527 1540 1540 1525 1494 1489 1485 1486 1487 1488 1491 1493 1495 1498 1501 1503 1506 1509 1511 1513 1516 1517 1519 1521 1522 1524 1525 1527 1528 1530 1532 1533 1536 1537
1478 1491 1499 1491 1480 1479 1483 1492 1504 1516 1523 1529 1531 1520 1483 1483 1482 1483 1485 1487 1490 1492 1495 1498 1500 1503 1506 1508 1511 1513 1515 1517 1518 1519 1521 1522 1523 1525 1526 1527 1529 1530 1532 1533
1476 1490 1503 1500 1493 1484 1484 1488 1493 1504 1518 1530 1529 1512 1482 1481 1481 1482 1484 1487 1489 1492 1494 1497 1500 1502 1505 1508 1510 1512 1514 1516 1517 1518 1519 1520 1521 1522 1524 1525 1526 1527 1529 1530
1469 1485 1493 1500 1495 1484 1483 1486 1491 1499 1515 1521 1515 1500 1486 1482 1481 1482 1483 1486 1488 1491 1493 1496 1499 1502 1504 1507 1510 1512 1513 1515 1516 1517 1518 1519 1520 1521 1522 1523 1524 1525 1526 1527
1469 1481 1480 1479 1476 1476 1476 1479 1486 1489 1494 1502 1497 1494 1482 1476 1476 1478 1481 1484 1487 1490 1493 1495 1498 1501 1504 1506 1509 1511 1513 1514 1515 1516 1517 1518 1519 1520 1521 1522 1523 1523 1524 1525
1472 1478 1478 1477 1474 1474 1475 1474 1479 1480 1483 1486 1485 1485 1473 1472 1475 1477 1480 1482 1486 1489 1492 1495 1498 1501 1503 1506 1509 1511 1512 1514 1515 1516 1517 1518 1519 1520 1520 1521 1522 1522 1523 1524
1477 1479 1485 1487 1477 1476 1484 1474 1475 1475 1474 1477 1481 1474 1470 1472 1472 1473 1477 1480 1483 1486 1490 1494 1497 1500 1503 1505 1508 1510 1512 1513 1515 1516 1517 1518 1519 1519 1520 1521 1521 1522 1522 1523
1477 1482 1489 1490 1485 1494 1479 1465 1465 1468 1468 1468 1467 1466 1466 1466 1468 1471 1474 1477 1481 1485 1489 1493 1497 1500 1503 1505 1508 1510 1511 1513 1514 1515 1516 1517 1518 1519 1520 1520 1521 1522 1522 1523
1471 1478 1489 1495 1493 1485 1472 1464 1465 1468 1468 1464 1464 1464 1466 1467 1470 1473 1474 1476 1480 1484 1488 1492 1496 1500 1503 1505 1507 1509 1510 1512 1513 1515 1516 1517 1518 1518 1519 1520 1520 1521 1522 1522
1472 1474 1485 1492 1490 1492 1475 1463 1462 1465 1470 1462 1462 1463 1465 1467 1474 1472 1472 1476 1480 1485 1489 1493 1496 1499 1502 1504 1506 1508 1509 1511 1512 1514 1515 1516 1517 1518 1518 1519 1520 1520 1521 1522
1479 1481 1484 1488 1487 1481 1468 1463 1462 1476 1471 1460 1460 1460 1462 1464 1465 1467 1471 1475 1480 1484 1488 1492 1495 1498 1501 1503 1505 1507 1508 1510 1512 1513 1514 1515 1516 1517 1518 1518 1519 1520 1520 1521
1481 1483 1486 1488 1488 1484 1465 1463 1466 1465 1459 1458 1458 1459 1461 1463 1464 1467 1471 1475 1479 1483 1488 1491 1494 1497 1500 1502 1504 1506 1507 1509 1510 1511 1513 1514 1515 1516 1517 1517 1518 1519 1520 1520
1479 1479 1480 1480 1478 1469 1465 1464 1461 1460 1458 1457 1457 1459 1461 1463 1466 1468 1472 1475 1479 1483 1487 1491 1494 1497 1499 1501 1503 1504 1506 1507 1509 1510 1511 1512 1513 1514 1515 1516 1517 1518 1519 1519
1475 1474 1475 1474 1469 1466 1464 1462 1460 1458 1457 1457 1458 1459 1461 1463 1466 1469 1473 1477 1480 1483 1486 1489 1493 1495 1498 1500 1502 1503 1505 1506 1507 1508 1510 1511 1512 1513 1514 1515 1516 1517 1518 1519
1474 1473 1474 1473 1468 1465 1463 1462 1461 1459 1458 1458 1459 1461 1463 1465 1468 1470 1474 1477 1481 1484 1486 1489 1491 1494 1496 1498 1500 1502 1503 1504 1506 1507 1508 1509 1511 1512 1513 1514 1515 1516 1517 1518
1472 1472 1473 1472 1467 1467 1465 1463 1462 1461 1460 1461 1462 1463 1466 1467 1469 1472 1475 1478 1481 1484 1486 1489 1491 1494 1496 1497 1499 1501 1502 1503 1504 1505 1506 1508 1509 1510 1511 1513 1514 1515 1516 1518